Погода в Тархуна

Ливия     32°26′09″N   13°38′16″E
темп.,
°C
ветер,
м/с
пор.,
м/с
влажн.,
%
обл.,
%
осадки,
мм/ч
давл.,
гПа
погр.,
м
28 февраля, вс
вс2823:00+10вюв22880 0.0 102471
02:00+10ююв33910 0.0 102359
05:00+9ю34910 0.0 102359
08:00+9ю33880 0.0 102330
11:00+15зюз11520 0.0 1024526
14:00+19ссз33370 0.0 10231512
17:00+16св66600 0.0 1022555
20:00+12всв57840 0.0 1023279
1 марта, пн
пн123:00+11вюв47890 0.0 1025243
02:00+11юв46940 0.0 1025149
05:00+10юв45950 0.0 1024104
08:00+10юв35960 0.0 102590
11:00+15юв55651 0.0 1026535
14:00+18юв32431 0.0 10241356
17:00+18всв76500 0.0 1023759
20:00+13в69710 0.0 1024304
2 марта, вт
вт223:00+12вюв59780 0.0 1026313
02:00+10юв48810 0.0 1026181
05:00+9юв46880 0.0 1025116
08:00+9юв46900 0.0 1025129
11:00+14вюв68570 0.0 1027770
14:00+18вюв67430 0.0 10261459
17:00+17в775143 0.0 10251312
20:00+13в8117330 0.0 1026521
3 марта, ср
ср323:00+12вюв6118212 0.0 1028386
02:00+11вюв5108834 0.0 1027302
05:00+10вюв5109337 0.0 1026258
08:00+10юв6139655 0.0 1027370
11:00+15юв9116352 0.0 10271058
14:00+18юв10115026 0.0 10261426
17:00+17вюв1011529 0.0 10241303
20:00+12вюв12167215 0.0 1024674
4 марта, чт
чт423:00+11вюв111775100 0.0 1024619
02:00+11юв121776100 0.0 1024650
05:00+10юв13197352 0.1 1022553
08:00+9юв13197141 0.1 1022456
11:00+13ююв162048100 0.2 1021669
14:00+17юв131635100 0.3 1018911
17:00+19юв131627100 0.0 1015991
20:00+16юв91536100 0.1 1014477